GW4058 Weather Reports


time (UTC)temp
F
wind
direction
speed
knots
gust
knots
rain 1hr
in
rain 24hr
in
rain mn
in
humidity
%
barometer
mb
20260507114504 50 0.9 1.7 0.00 0.59 0.24 90 1012.8
20260507113519 50 0.9 1.7 0.00 0.59 0.24 90 1012.8
20260507112601 49 0.9 1.7 0.00 0.59 0.24 89 1012.7
20260507111516 50 0.9 1.7 0.00 0.59 0.24 91 1012.8
20260507110517 50 0.9 1.7 0.00 0.59 0.24 91 1012.7
20260507105517 50 0.9 1.7 0.00 0.59 0.24 90 1012.6
20260507104505 51 0.9 1.7 0.00 0.59 0.24 89 1012.4
20260507103517 51 0.9 1.7 0.00 0.59 0.24 92 1012.3
20260507102517 51 0.9 1.7 0.00 0.59 0.24 96 1012.1
20260507101517 51 0.9 1.7 0.00 0.59 0.24 97 1012.0
20260507100519 51 0.9 1.7 0.00 0.59 0.24 97 1011.9
20260507095519 51 0.9 1.7 0.00 0.59 0.24 97 1012.0
20260507094538 51 0.9 1.7 0.00 0.59 0.24 96 1011.9
20260507093518 51 0.9 1.7 0.00 0.59 0.24 96 1011.8
20260507092519 51 0.9 1.7 0.00 0.59 0.24 96 1011.8
20260507091518 52 0.9 1.7 0.00 0.59 0.24 95 1011.9
20260507090519 52 0.9 1.7 0.00 0.59 0.24 95 1011.9
20260507085519 52 0.9 0.9 0.00 0.59 0.24 95 1011.7
20260507084536 52 0.9 3.5 0.00 0.59 0.24 95 1011.6
20260507083539 52 0.9 1.7 0.00 0.59 0.24 95 1011.6
20260507082519 52 0.9 1.7 0.00 0.59 0.24 96 1011.4
20260507081521 52 0.9 0.9 0.00 0.59 0.24 96 1011.2
20260507080518 52 4.3 7.8 0.00 0.59 0.24 96 1011.1
20260507075518 52 6.1 8.7 0.01 0.59 0.24 96 1011.1
20260507074517 52 2.6 7.0 0.01 0.59 0.24 96 1011.1
20260507073520 53 4.3 7.8 0.01 0.59 0.24 96 1011.2
20260507072517 53 5.2 8.7 0.01 0.59 0.24 96 1011.1
20260507071518 53 1.7 6.1 0.01 0.59 0.24 96 1011.0
20260507070519 54 0.9 3.5 0.01 0.59 0.24 96 1011.0
20260507065518 54 0.9 2.6 0.00 0.58 0.24 96 1011.3
20260507064518 54 1.7 2.6 0.00 0.58 0.23 96 1011.4
20260507063519 54 1.7 2.6 0.00 0.58 0.23 96 1011.3
20260507062519 54 0.9 1.7 0.00 0.58 0.23 96 1011.0
20260507061519 54 1.7 1.7 0.00 0.58 0.23 97 1011.2
20260507060517 54 1.7 1.7 0.00 0.58 0.23 97 1011.4
20260507055517 55 0.9 1.7 0.01 0.58 0.23 97 1011.2
20260507054517 55 0.9 0.9 0.01 0.58 0.23 97 1011.3
20260507053520 55 0.9 0.9 0.14 0.58 0.23 97 1011.2
20260507052517 55 0.9 0.9 0.21 0.58 0.23 96 1011.4
20260507051517 55 0.9 1.7 0.21 0.58 0.23 96 1011.4
20260507050518 55 0.9 1.7 0.21 0.58 0.23 96 1010.9
20260507045538 56 0.9 3.5 0.23 0.57 0.23 96 1011.4
20260507044538 56 1.7 5.2 0.23 0.57 0.22 95 1011.6
20260507043516 57 1.7 20.0 0.11 0.44 0.09 94 1011.4
20260507042515 57 0.9 1.7 0.04 0.37 0.02 94 1011.1
20260507041515 57 0.9 2.6 0.03 0.37 0.02 92 1011.2
20260507040516 58 2.6 4.3 0.03 0.37 0.02 91 1011.2
20260507035516 59 3.5 7.0 0.01 0.35 0.35 87 1010.9
20260507034513 60 1.7 3.5 0.00 0.33 0.33 84 1010.8
20260507033516 60 1.7 2.6 0.00 0.33 0.33 83 1010.6
20260507032517 60 0.9 3.5 0.00 0.33 0.33 82 1010.5
20260507031519 60 2.6 3.5 0.00 0.33 0.33 82 1010.6
20260507030557 60 3.5 17.4 0.00 0.33 0.33 83 1010.6
20260507025517 61 1.7 3.5 0.00 0.33 0.33 84 1010.3
20260507024534 61 1.7 3.5 0.00 0.33 0.33 84 1010.2
20260507023517 61 4.3 20.0 0.00 0.33 0.33 85 1010.2
20260507022517 61 3.5 7.8 0.00 0.33 0.33 87 1010.1
20260507021517 62 2.6 6.1 0.00 0.33 0.33 89 1010.1
20260507020518 62 2.6 4.3 0.00 0.33 0.33 88 1010.1
20260507015518 63 3.5 20.9 0.01 0.33 0.33 89 1010.1
20260507014536 63 3.5 20.9 0.01 0.33 0.33 94 1009.7
20260507013518 63 0.9 2.6 0.01 0.33 0.33 94 1010.0
20260507012518 63 0.9 2.6 0.01 0.33 0.33 93 1010.2
20260507011519 64 1.7 2.6 0.01 0.33 0.33 91 1010.2
20260507010519 64 1.7 2.6 0.01 0.33 0.33 91 1010.2
20260507005519 65 1.7 3.5 0.01 0.33 0.33 89 1010.1
20260507004536 66 3.5 5.2 0.01 0.33 0.33 87 1009.9
20260507003519 66 3.5 19.1 0.00 0.32 0.32 85 1009.8
20260507002517 67 1.7 3.5 0.00 0.32 0.32 86 1009.7
20260507001517 67 0.9 0.9 0.00 0.32 0.32 85 1009.3
20260507000521 67 0.9 2.6 0.00 0.32 0.32 85 1009.3
20260506235520 67 2.6 3.5 0.00 0.32 0.32 85 1009.1
20260506234537 67 1.7 2.6 0.00 0.32 0.32 85 1009.0
20260506233523 67 1.7 2.6 0.00 0.32 0.32 84 1008.8
20260506232518 68 1.7 2.6 0.00 0.32 0.32 84 1009.0
20260506231544 68 0.9 1.7 0.00 0.32 0.32 83 1008.6
20260506230521 68 0.9 1.7 0.00 0.32 0.32 83 1008.6
20260506225538 68 0.9 1.7 0.00 0.32 0.32 82 1008.7
20260506224520 68 1.7 2.6 0.00 0.32 0.32 82 1008.6
20260506223518 68 0.9 1.7 0.00 0.32 0.32 82 1008.4
20260506222519 68 0.9 2.6 0.00 0.32 0.32 82 1008.6
20260506221519 68 0.9 0.9 0.00 0.32 0.32 82 1008.8
20260506220519 68 0.9 1.7 0.00 0.32 0.32 81 1008.7
20260506215520 68 0.9 2.6 0.00 0.32 0.32 81 1008.6
20260506214519 69 1.7 2.6 0.00 0.32 0.32 80 1008.7
20260506213519 69 1.7 2.6 0.00 0.32 0.32 79 1008.5
20260506212517 69 1.7 2.6 0.00 0.32 0.32 79 1008.3
20260506211520 69 1.7 2.6 0.00 0.32 0.32 79 1008.3
20260506210522 69 1.7 2.6 0.00 0.32 0.32 79 1008.3
20260506205521 69 1.7 2.6 0.00 0.32 0.32 79 1008.1
20260506204527 69 1.7 3.5 0.00 0.32 0.32 79 1008.1
20260506203519 69 2.6 4.3 0.00 0.32 0.32 78 1007.9
20260506202518 69 1.7 3.5 0.00 0.32 0.32 79 1008.3
20260506201527 69 1.7 3.5 0.00 0.32 0.32 78 1008.2
20260506200522 69 1.7 5.2 0.00 0.32 0.32 78 1008.0
20260506195518 70 3.5 7.0 0.00 0.32 0.32 77 1008.1
20260506194518 69 2.6 5.2 0.00 0.32 0.32 78 1008.2
20260506193540 68 2.6 6.1 0.00 0.32 0.32 79 1008.2
20260506192540 68 2.6 7.8 0.00 0.32 0.32 79 1008.1
20260506191519 68 2.6 7.0 0.00 0.32 0.32 81 1008.3
20260506190519 68 4.3 8.7 0.00 0.32 0.32 80 1008.4
20260506185519 67 2.6 7.8 0.00 0.32 0.32 82 1008.4
20260506184519 66 3.5 7.8 0.00 0.32 0.32 82 1008.6
20260506183521 66 3.5 7.8 0.00 0.32 0.32 83 1008.7
20260506182557 66 3.5 7.8 0.00 0.32 0.32 83 1008.7
20260506181523 65 2.6 5.2 0.00 0.32 0.32 85 1008.8
20260506180540 65 2.6 7.8 0.00 0.32 0.32 85 1008.9
20260506175520 65 1.7 4.3 0.00 0.32 0.32 86 1009.0
20260506174526 64 1.7 6.1 0.00 0.32 0.32 86 1009.0
20260506173538 64 3.5 7.0 0.00 0.32 0.32 86 1008.9
20260506172518 64 2.6 3.5 0.00 0.32 0.32 87 1008.9
20260506171544 63 3.5 5.2 0.00 0.32 0.32 89 1009.0
20260506170518 63 2.6 4.3 0.00 0.32 0.32 90 1009.1
20260506165518 62 3.5 5.2 0.00 0.32 0.32 91 1009.0
20260506164519 62 2.6 4.3 0.00 0.32 0.32 91 1009.1
20260506163519 62 3.5 7.0 0.00 0.32 0.32 92 1009.2
20260506162519 61 2.6 6.1 0.00 0.32 0.32 93 1009.1
20260506161519 61 3.5 7.0 0.00 0.32 0.32 93 1009.2
20260506160540 61 3.5 5.2 0.00 0.32 0.32 94 1009.3
20260506155520 61 3.5 8.7 0.01 0.32 0.32 94 1009.4
20260506154520 60 4.3 7.8 0.01 0.31 0.31 94 1009.1
20260506153536 60 3.5 10.4 0.03 0.31 0.31 95 1009.3
20260506152520 60 2.6 6.1 0.04 0.31 0.31 95 1009.3
20260506151601 60 4.3 7.8 0.05 0.31 0.31 96 1009.5
20260506150546 60 2.6 7.0 0.07 0.31 0.31 96 1009.6
20260506145518 60 4.3 10.4 0.08 0.31 0.31 96 1009.9
20260506144518 60 3.5 7.8 0.09 0.30 0.30 96 1010.1
20260506143518 60 3.5 7.0 0.10 0.29 0.29 96 1010.0
20260506142521 60 4.3 8.7 0.13 0.28 0.28 96 1010.0
20260506141525 60 4.3 7.8 0.12 0.26 0.26 95 1010.0
20260506140518 60 3.5 7.8 0.11 0.24 0.24 95 1009.8
20260506135518 60 3.5 7.0 0.12 0.23 0.23 95 1009.9
20260506134520 60 2.6 6.1 0.12 0.22 0.22 95 1009.9
20260506133519 60 2.6 7.8 0.10 0.18 0.18 94 1010.3
20260506132521 61 2.6 8.7 0.09 0.15 0.15 94 1010.6
20260506131542 61 3.5 7.0 0.10 0.14 0.14 93 1010.3
20260506130519 61 1.7 5.2 0.11 0.13 0.13 92 1010.2
20260506125519 61 2.6 5.2 0.10 0.11 0.11 91 1010.1
20260506124520 61 2.6 5.2 0.09 0.09 0.09 90 1010.0
20260506123517 62 1.7 4.3 0.08 0.08 0.08 88 1009.9
20260506122528 62 2.6 5.2 0.05 0.05 0.05 86 1010.2
20260506121605 62 2.6 4.3 0.04 0.04 0.04 84 1010.5
20260506120521 63 1.7 4.3 0.03 0.03 0.03 82 1010.5
20260506115519 64 2.6 8.7 0.01 0.01 0.01 79 1010.5